This demonstration page uses our WeatherBlox Daily Observations layout. Learn more.

39.92423, -83.80882

Hourly Observations for September 22, 2020

Temp ( °F °C ) Dew Point ( °F °C ) Humidity (%) Winds ( mph kmh ) Pressure ( in mb ) Visibility ( mi km ) Precip ( " mm )
12:56 am 00:56 Clear 43 6.1 41 5 93 93 Calm 30.33 1027 10 16.0934 0 0
1:56 am 01:56 Clear 42 5.6 41 5 96 96 E 3 6 30.32 1027 10 16.0934 0 0
2:56 am 02:56 Clear 41 5 40 4.4 96 96 E 3 6 30.31 1027 10 16.0934 0 0
3:56 am 03:56 Clear 41 5 41 5 100 100 ENE 3 6 30.3 1026 10 16.0934 0 0
4:56 am 04:56 Clear 38 3.3 38 3.3 100 100 ENE 3 6 30.29 1026 10 16.0934 0 0
5:56 am 05:56 Clear 40 4.4 40 4.4 100 100 Calm 30.3 1026 10 16.0934 0 0
6:56 am 06:56 Clear 39 3.9 39 3.9 100 100 ESE 3 6 30.31 1026 10 16.0934 0 0
7:56 am 07:56 Sunny 39 3.9 39 3.9 100 100 Calm 30.32 1027 10 16.0934 0 0
8:56 am 08:56 Sunny 48 8.9 47 8.3 96 96 Calm 30.32 1027 10 16.0934 0 0
9:56 am 09:56 Sunny 59 15 48 8.9 67 67 Calm 30.31 1027 10 16.0934 0 0
10:56 am 10:56 Sunny 64 17.8 47 8.3 54 54 Calm 30.3 1026 10 16.0934 0 0
11:56 am 11:56 Sunny 68 20 45 7.2 44 44 SW 5 7 30.28 1025 10 16.0934 0 0
12:56 pm 12:56 Sunny 70 21.1 43 6.1 38 38 VRB 3 6 30.25 1025 10 16.0934 0 0
1:56 pm 13:56 Sunny 72 22.2 43 6.1 35 35 VRB 5 7 30.23 1024 10 16.0934 0 0
2:56 pm 14:56 Sunny 72 22.2 43 6.1 35 35 Calm 30.2 1023 10 16.0934 0 0
3:56 pm 15:56 Sunny 73 22.8 43 6.1 34 34 Calm 30.18 1022 10 16.0934 0 0
4:56 pm 16:56 Sunny 72 22.2 43 6.1 35 35 NW 3 6 30.16 1022 10 16.0934 0 0
5:56 pm 17:56 Sunny 70 21.1 46 7.8 42 42 Calm 30.15 1021 10 16.0934 0 0
6:56 pm 18:56 Sunny 66 18.9 48 8.9 52 52 S 3 6 30.15 1021 10 16.0934 0 0
7:56 pm 19:56 Clear 57 13.9 50 10 78 78 Calm 30.15 1021 10 16.0934 0 0
8:56 pm 20:56 Clear 54 12.2 50 10 87 87 Calm 30.15 1021 10 16.0934 0 0
9:56 pm 21:56 Clear 53 11.7 49 9.4 86 86 Calm 30.14 1021 10 16.0934 0 0
10:56 pm 22:56 Clear 50 10 48 8.9 93 93 Calm 30.13 1020 10 16.0934 0 0
11:56 pm 23:56 Clear 49 9.4 47 8.3 93 93 SSW 3 6 30.13 1020 10 16.0934 0 0

Powered by AerisWeather